Terminal Aerodrome Forecast
Issued by NWS Greer, SC

Home | Current Version | Previous Version | Text Only | Print | Product List | Glossary On
Versions: 1 2 3 4 5 6 7 8 9 10 11 12 13 14 15 16 17 18 19 20 21 22 23 24 25 26 27 28 29 30 31 32 33 34 35 36 37 38 39 40 41 42 43 44 45
000
FTUS42 KGSP 302300
TAFAVL
TAF
KAVL 302339Z 3100/3124 VRB03KT P6SM BKN050
     FM310200 00000KT P6SM SCT060
     FM310900 00000KT 4SM BR BKN050
     FM311200 14004KT P6SM BKN040 OVC050=

USA.gov is the U.S. government's official web portal to all federal, state and local government web resources and services.